Wind_Speed
10 10 12 13 15 18 21 24 27 29 32 34 35 37 38 40 42 43 44 46 46 46 47 47 47 47 48 47 47 48 47 46 45 43 42 41 41 42 42 42 41 41 41 41 41 41 40 40 40 39 39 39 39 40 41 40 40 41 40 39 39 38 37 37 37 37 37 35 33 31 29 30 30 30 30 31 34 36 36 37 38 40 41 42 42
10 11 13 15 18 21 23 26 29 31 33 35 37 38 39 41 42 43 44 45 46 46 47 48 48 48 49 49 49 50 50 49 47 46 45 43 42 42 43 43 42 42 42 42 42 42 41 41 40 40 40 39 39 40 41 41 40 40 40 39 39 39 37 36 37 37 36 35 34 31 29 28 30 30 29 28 30 34 36 36 37 39 41 42 42
11 12 14 17 20 23 26 28 30 32 34 36 37 39 41 42 43 44 44 45 46 46 46 46 48 49 49 49 50 51 51 51 50 48 47 46 44 44 44 45 44 43 43 43 43 42 42 41 41 41 40 40 40 40 41 41 41 40 40 39 39 39 38 36 36 36 36 35 34 32 29 27 28 30 30 26 27 31 34 35 36 38 39 40 42
13 14 16 19 21 25 28 30 32 33 35 37 38 40 42 44 45 46 46 46 46 46 46 46 47 48 49 49 50 51 52 52 52 50 49 49 47 47 46 46 46 45 45 45 44 43 42 42 42 41 41 41 40 41 41 42 41 41 40 39 39 39 38 37 36 36 35 34 33 31 30 28 27 29 30 27 26 28 30 33 35 37 38 39 40
15 17 20 23 25 28 30 33 35 36 38 40 41 43 45 46 47 48 48 47 46 46 47 47 47 48 49 49 49 50 51 52 52 52 52 51 50 49 48 48 47 46 46 46 45 44 43 42 42 42 42 42 41 41 42 42 42 41 40 40 39 39 38 37 35 35 35 34 32 31 30 29 28 29 30 28 27 27 28 30 33 35 36 37 38
19 21 24 27 28 31 32 34 37 39 41 43 45 46 47 48 49 49 49 48 47 46 47 48 48 48 48 49 49 49 50 51 51 52 53 53 53 52 50 49 49 48 46 46 46 45 44 43 43 42 42 42 42 42 42 42 43 42 41 40 39 39 39 37 35 35 35 33 32 30 30 29 28 29 30 30 28 26 26 28 30 33 35 36 37
22 24 27 29 30 32 34 36 38 40 43 44 46 48 49 50 50 50 50 48 47 46 46 47 48 49 49 49 49 49 49 50 51 52 53 54 54 55 53 52 52 50 48 46 46 45 44 44 44 43 43 43 43 43 42 42 43 43 42 41 40 40 39 38 36 35 35 34 32 30 29 29 29 28 30 31 30 27 26 26 27 31 34 36 36
24 27 30 30 32 34 36 38 40 43 45 47 48 50 51 51 51 50 49 48 46 45 45 45 46 47 48 49 49 49 49 49 50 52 54 54 55 55 56 55 55 54 51 48 46 45 44 43 45 44 43 43 43 43 43 43 43 43 43 42 41 41 40 39 37 36 35 34 33 31 29 29 28 28 29 31 32 30 27 26 26 27 30 34 36
26 30 33 33 34 36 38 40 43 45 48 50 51 53 53 54 53 51 49 48 47 46 45 44 45 46 47 48 49 50 50 50 50 51 53 54 55 56 57 57 57 57 55 52 48 46 45 44 44 45 44 44 44 44 43 43 43 44 43 43 42 42 41 39 38 37 36 35 34 32 30 29 28 28 28 30 32 32 30 28 27 26 27 29 33
28 34 36 35 36 39 41 43 46 48 51 52 54 55 56 57 57 55 51 49 49 48 46 45 45 45 45 47 48 49 49 50 51 52 52 54 55 55 57 58 59 59 58 56 51 48 46 45 44 45 44 44 44 44 44 43 43 43 44 44 43 43 42 41 39 38 37 36 35 33 32 31 30 28 28 28 30 31 31 30 30 29 28 27 29
33 38 37 36 39 42 44 46 48 51 54 55 57 58 59 58 58 58 55 52 51 49 48 46 45 45 45 46 47 47 48 49 51 51 52 53 54 54 55 57 58 59 60 59 55 51 48 47 45 45 44 44 44 45 44 44 43 43 43 44 44 44 42 42 41 39 38 38 36 35 33 32 31 30 29 28 29 29 30 31 30 30 30 28 28
36 39 38 39 42 44 47 49 52 55 57 59 60 60 60 59 58 58 57 55 53 51 50 47 45 45 45 46 46 47 48 49 50 50 51 52 53 53 54 54 55 57 59 60 58 53 51 49 46 44 44 44 44 44 44 44 44 43 43 44 44 44 44 43 42 40 39 39 38 36 34 33 32 31 30 29 29 29 30 30 30 31 30 29 29
38 39 40 43 46 48 51 54 56 59 60 62 62 61 60 59 59 58 57 55 53 52 51 51 49 47 47 47 48 48 49 50 50 51 51 52 53 53 54 53 52 54 57 59 59 55 53 52 48 44 43 43 44 44 44 45 44 44 43 43 44 44 44 44 43 41 40 39 39 37 35 34 33 32 31 30 29 30 30 30 30 31 30 29 29
40 41 43 47 50 53 56 58 60 62 63 63 62 61 61 60 60 59 56 54 52 52 52 52 52 51 50 49 49 49 50 50 51 51 51 52 53 54 55 54 51 53 54 57 58 56 55 54 50 46 43 43 43 43 44 44 44 44 43 43 43 44 44 44 43 43 41 40 39 38 37 35 33 33 32 30 30 30 31 30 30 31 31 29 28
41 43 47 51 55 58 60 61 61 62 64 63 63 62 62 61 59 57 55 54 53 53 52 51 51 51 52 52 51 51 51 52 52 53 53 53 54 55 56 55 52 53 53 54 57 57 57 55 51 47 44 43 43 43 43 44 44 44 44 43 43 44 44 44 43 44 43 41 40 39 38 35 34 33 33 31 30 30 31 31 31 31 30 29 27
42 46 51 55 58 58 60 62 62 63 64 64 64 65 63 61 59 55 53 53 52 51 49 48 49 50 51 52 53 53 53 53 53 53 54 55 56 57 57 55 53 54 54 53 54 57 57 55 52 49 45 43 42 42 43 44 44 45 44 43 43 43 43 43 43 44 43 42 41 40 38 36 34 34 33 32 31 30 31 32 32 31 31 29 27
44 50 55 59 59 56 55 60 64 65 65 65 64 63 61 59 58 58 56 52 50 48 47 47 48 49 50 52 54 55 56 56 56 56 55 56 57 58 58 57 55 55 55 54 53 54 56 55 52 49 46 43 41 41 42 44 44 45 44 43 43 43 43 43 43 44 43 43 42 40 39 37 35 34 33 33 32 30 30 32 32 32 31 30 28
48 55 60 62 60 56 54 57 62 63 63 64 61 58 57 57 56 57 58 56 52 49 48 47 47 49 51 52 54 55 57 58 58 59 58 57 57 58 59 58 56 56 56 54 52 53 55 55 53 49 45 43 40 40 41 43 44 44 44 43 42 42 42 42 43 43 43 43 42 41 39 38 37 35 34 33 32 31 30 31 32 32 31 29 29
53 61 64 63 58 55 55 57 59 59 57 57 56 54 55 57 57 55 54 56 56 52 49 47 48 50 51 52 53 54 56 58 59 60 61 60 59 60 60 59 57 56 56 55 52 52 53 54 52 49 45 42 40 39 40 42 43 43 43 43 42 41 41 42 42 43 43 43 42 41 39 38 38 37 35 34 33 32 30 31 32 32 31 29 28
60 65 63 59 54 51 54 56 56 55 54 52 54 56 56 56 59 58 56 56 56 56 55 54 55 57 58 58 58 58 59 60 62 62 63 62 61 61 61 61 60 57 57 56 53 50 51 53 52 48 45 42 39 38 39 41 42 42 42 42 42 41 41 41 41 42 43 43 42 41 39 38 38 38 36 35 34 33 31 30 31 31 31 29 27
66 64 55 51 51 51 53 54 51 51 54 54 54 55 55 55 56 57 58 57 54 57 61 62 62 65 67 65 62 61 61 62 62 63 62 63 63 62 60 60 61 58 56 57 54 49 48 50 50 47 44 41 37 38 39 40 42 41 41 41 41 41 41 40 41 42 43 43 41 40 39 38 38 38 36 35 34 33 32 31 30 30 30 29 27
60 57 51 48 50 53 54 52 50 51 53 56 57 55 53 55 56 55 55 53 51 56 63 65 66 67 66 64 62 60 59 59 59 58 58 59 61 61 59 58 59 58 56 56 55 49 45 46 48 46 43 40 37 37 38 40 41 41 40 39 39 40 40 40 40 41 42 42 41 40 38 37 37 37 36 35 35 33 32 30 30 30 29 28 27
51 50 52 51 52 54 53 51 53 55 54 55 57 57 55 56 57 57 55 53 53 59 64 67 68 66 62 60 61 61 60 58 57 55 55 55 57 59 58 57 56 55 54 54 54 50 44 43 46 46 41 38 36 37 38 39 41 40 39 38 39 39 40 39 39 40 41 42 41 39 37 37 37 36 35 35 35 33 32 30 29 29 28 27 27
53 51 50 50 51 52 53 55 57 58 58 55 54 54 56 57 56 56 57 56 56 60 64 65 65 63 61 60 61 62 63 62 59 55 54 54 54 54 55 54 53 52 51 51 52 50 45 42 43 44 40 37 36 36 37 39 40 39 38 38 39 39 39 38 38 38 39 41 40 39 37 36 36 35 34 34 34 32 31 30 29 28 28 27 26
54 50 49 50 52 52 55 59 60 59 58 56 54 53 53 54 53 54 55 57 58 59 62 63 61 60 61 61 61 62 64 64 61 56 53 52 50 49 50 51 50 50 50 50 49 49 46 42 41 41 38 35 36 36 37 38 38 37 37 37 38 39 38 37 37 37 38 39 39 38 36 36 36 34 33 33 33 31 30 29 28 27 27 27 25
49 47 50 51 52 55 59 60 60 59 57 55 55 55 54 54 54 54 56 59 60 60 60 60 60 60 60 60 61 60 60 62 61 56 53 51 48 47 49 50 50 49 48 48 47 46 45 42 39 38 36 34 35 36 36 37 37 36 36 37 38 38 37 36 35 35 37 38 38 37 36 36 35 33 32 32 32 30 28 27 27 27 27 27 25
46 49 51 52 55 60 63 61 58 57 56 56 56 56 56 56 57 57 58 59 61 60 60 59 59 59 59 60 61 58 58 60 60 56 54 51 48 48 49 50 50 49 46 44 44 44 44 42 38 36 34 33 34 35 35 36 35 34 35 36 37 37 35 34 33 34 36 37 37 36 35 35 34 31 31 32 31 28 27 26 26 26 27 26 25
47 51 52 55 60 62 62 61 59 57 56 56 55 55 56 56 57 57 58 58 60 60 60 59 59 59 59 59 58 57 58 60 59 56 53 50 49 48 49 51 52 49 45 42 41 41 42 41 36 32 31 32 34 34 34 34 34 34 35 36 36 35 34 33 33 33 35 36 36 35 34 34 32 31 31 31 29 27 26 25 25 26 26 25 24
52 54 54 60 64 64 63 61 60 59 58 57 56 55 55 56 56 57 57 57 58 59 60 60 59 59 59 58 58 58 59 59 58 55 52 49 49 49 50 53 53 48 43 40 38 38 40 39 34 30 29 31 33 33 32 32 33 33 34 35 35 34 32 32 33 33 34 35 35 34 33 32 31 30 31 30 27 25 24 25 24 25 25 24 22
54 55 59 63 65 64 63 62 61 60 58 57 56 56 56 57 57 58 58 58 58 59 59 59 59 59 58 58 58 58 58 57 56 54 51 50 50 50 53 55 51 45 42 38 35 36 37 35 30 28 29 31 32 31 30 31 32 33 34 34 33 33 32 32 32 32 33 34 34 33 32 31 30 31 31 28 25 23 23 24 24 24 24 23 21
56 58 62 65 66 64 63 62 61 59 57 57 57 57 58 59 58 58 58 58 58 58 59 59 59 59 58 58 58 57 57 56 54 51 50 50 50 50 52 51 46 42 39 35 33 33 33 31 28 28 30 31 31 29 28 30 32 33 33 33 32 31 31 30 30 31 32 32 32 31 31 30 30 30 29 26 23 22 23 23 23 23 22 21 20
59 62 65 67 66 64 62 61 60 58 58 58 59 59 59 58 58 58 58 58 58 58 59 59 59 58 58 57 57 56 56 55 54 50 48 48 48 47 47 45 42 39 36 32 29 29 30 29 29 31 32 31 29 27 27 29 31 32 32 32 30 30 30 29 29 29 30 31 31 31 30 30 30 29 27 24 22 22 22 22 22 22 21 21 20
61 65 68 69 66 64 62 61 59 59 59 59 59 59 59 59 59 59 59 59 59 59 60 60 59 58 58 58 57 57 57 56 54 50 47 46 46 44 43 42 39 36 34 29 26 27 29 30 32 33 33 31 28 26 26 28 30 31 32 31 30 28 28 28 28 28 29 30 30 29 29 29 29 29 26 23 22 22 21 21 21 21 20 20 19
63 68 70 68 66 64 62 61 61 60 59 59 59 59 59 60 60 60 61 61 61 61 61 60 60 59 58 58 58 58 59 57 54 51 49 46 44 43 41 39 36 34 31 27 24 27 30 32 34 34 32 30 26 24 25 28 29 30 30 31 29 27 27 27 27 27 28 29 29 29 29 29 29 28 25 22 22 22 21 21 21 20 19 18 18
66 71 71 67 65 64 62 61 61 60 59 58 59 59 60 61 61 62 62 62 62 62 61 61 60 58 57 58 58 59 59 57 53 51 49 45 42 41 38 36 34 32 30 26 25 29 32 34 35 34 32 29 25 23 25 27 29 29 29 30 29 27 26 26 26 27 27 27 28 28 28 30 29 27 24 22 22 22 21 21 21 20 17 17 17
70 73 70 66 64 63 62 61 60 59 58 58 59 60 61 62 62 63 63 62 62 62 61 61 61 59 57 57 58 58 59 57 52 50 47 43 40 38 35 34 33 31 29 26 26 30 33 34 35 33 31 28 24 23 25 27 27 28 28 28 27 26 25 25 25 26 26 26 27 28 29 30 29 26 23 22 22 22 21 21 21 20 18 16 16
72 71 67 64 63 63 62 61 60 59 59 59 60 61 62 63 63 63 63 63 62 62 62 62 61 60 58 57 58 57 57 56 52 48 45 40 38 36 32 31 31 30 29 26 26 31 33 34 34 32 30 27 23 22 25 26 26 27 27 27 26 25 24 23 24 25 26 26 27 28 29 30 29 26 23 22 23 23 22 22 21 20 18 17 16
70 66 62 61 61 60 60 59 59 59 60 60 61 62 62 63 63 63 63 63 62 62 62 62 62 60 58 57 57 56 55 54 51 46 42 38 35 33 30 29 30 30 29 27 27 30 32 32 32 31 29 26 23 22 24 26 26 26 26 26 25 25 24 23 23 25 26 26 26 27 29 31 30 26 23 22 23 24 24 23 22 21 19 18 17
63 61 60 59 59 58 57 57 57 58 59 60 61 62 63 63 63 63 63 63 63 62 61 61 61 61 59 57 57 56 54 52 48 43 40 36 34 31 29 29 30 30 29 27 26 29 31 31 31 29 27 24 22 22 24 25 25 25 25 25 24 24 23 22 22 24 25 26 27 28 30 31 30 27 24 23 23 24 25 24 23 23 21 20 19
58 57 57 57 57 56 56 56 57 58 59 60 61 62 62 63 63 63 64 64 64 63 61 60 59 59 58 57 56 55 52 49 45 41 37 35 32 30 29 29 30 30 28 25 25 28 29 30 29 28 25 22 21 22 24 25 25 24 24 24 23 23 22 22 23 24 25 26 27 28 30 30 30 28 26 24 23 25 26 26 25 25 24 22 22
57 56 56 55 55 55 56 56 57 58 58 59 60 61 62 63 64 64 65 64 64 62 61 60 58 57 57 56 54 53 50 46 42 39 36 33 31 29 28 28 29 29 27 24 24 26 28 28 28 26 23 20 20 21 23 24 24 23 23 23 22 21 21 22 23 24 25 26 27 28 30 30 29 28 27 25 24 24 26 27 28 28 27 25 24
55 55 54 54 54 55 56 56 57 58 58 59 60 61 62 63 63 64 64 63 63 62 61 60 58 57 55 54 53 51 48 44 39 36 34 32 29 28 28 28 28 28 26 24 24 26 27 27 26 24 21 19 20 21 22 23 22 21 21 21 20 20 21 22 23 23 24 25 27 29 30 29 29 28 27 26 25 24 26 29 30 30 29 28 27
53 53 53 54 54 55 56 56 57 58 59 60 60 61 61 62 63 63 63 63 64 63 62 60 58 57 55 53 51 49 46 41 37 34 32 30 28 28 27 26 26 25 24 24 23 25 26 25 24 21 19 18 19 20 21 21 21 20 20 20 19 20 21 22 22 22 23 25 26 28 28 28 28 27 27 27 26 26 27 30 32 32 31 30 29
53 53 53 54 55 55 55 56 57 58 59 60 60 61 61 62 63 63 64 64 64 63 62 60 59 57 55 53 51 48 45 40 35 33 30 28 27 27 26 25 24 23 23 23 23 24 24 23 21 19 18 18 18 19 20 20 19 19 19 19 19 19 20 20 21 22 23 24 26 26 26 26 27 27 26 27 27 29 30 32 33 34 32 31 30
52 52 53 54 54 55 55 55 56 58 58 59 60 61 61 62 62 63 63 64 64 63 62 61 59 57 54 52 50 47 43 39 34 31 30 28 26 26 25 23 22 22 22 22 22 23 23 21 19 17 17 17 17 18 19 18 18 18 18 18 18 19 20 21 22 24 25 25 25 25 25 25 25 26 27 28 30 31 32 32 33 33 32 32 31
52 53 53 54 54 54 55 55 56 57 58 59 60 61 61 61 62 62 63 64 64 64 62 60 58 56 53 50 48 45 42 37 33 30 29 27 26 25 23 21 20 20 21 21 21 22 22 20 17 16 16 16 17 17 17 17 17 17 17 17 19 20 22 23 24 25 25 25 24 24 24 24 25 26 28 29 30 30 30 30 31 32 32 32 32
52 52 53 53 54 54 55 55 56 57 58 59 59 60 61 61 62 62 63 63 64 63 62 59 57 55 51 48 46 44 41 36 32 29 27 26 25 24 21 19 19 19 19 20 21 22 20 18 16 15 15 15 16 16 16 15 15 15 16 17 19 20 21 22 23 24 23 22 21 22 23 24 25 26 27 27 28 28 29 30 31 31 32 32 32
52 52 53 53 54 55 55 56 56 57 57 58 59 59 60 61 62 62 63 63 64 63 61 58 56 53 51 47 45 43 40 36 31 28 26 25 24 22 20 18 18 19 19 20 21 20 18 16 15 14 14 14 14 14 14 14 14 14 15 17 18 19 19 20 21 22 22 20 20 22 23 23 24 25 25 26 27 28 29 29 30 31 31 31 31
52 52 52 53 54 55 55 56 56 57 58 58 58 59 59 60 61 62 62 63 63 62 60 57 55 52 50 47 44 41 39 35 30 27 25 24 22 21 19 17 17 18 19 19 19 18 17 15 14 14 14 14 13 13 12 13 13 13 14 15 17 18 19 20 22 22 22 21 21 22 23 23 23 24 25 26 27 28 28 29 29 30 31 31 31
52 52 52 53 54 55 55 56 56 57 57 57 58 58 59 60 61 62 62 62 62 61 59 57 54 52 49 47 44 41 37 33 29 26 24 22 20 19 18 16 16 17 17 18 18 17 15 14 14 14 13 13 12 11 11 12 12 13 14 15 16 17 18 20 21 22 23 22 22 22 23 23 24 25 26 27 28 28 28 29 30 30 31 31 31
52 53 53 54 54 55 56 56 56 57 57 57 57 58 58 59 60 61 61 61 61 60 59 57 55 52 50 47 44 40 36 32 28 25 23 20 18 17 16 15 16 16 17 18 18 16 14 13 13 13 12 11 11 10 11 12 12 13 14 14 15 16 18 19 21 22 23 23 23 24 24 24 25 25 26 27 28 28 29 30 30 31 32 32 32
Wind_Direction
293 298 302 309 316 321 325 328 331 331 331 330 330 329 329 327 326 324 321 320 318 315 313 311 309 307 305 304 303 302 302 301 301 301 300 299 299 298 299 299 300 299 298 297 296 296 297 298 299 299 298 297 295 293 290 288 287 286 285 285 285 286 288 289 290 291 292 294 295 295 296 294 292 290 289 286 282 278 273 267 265 263 260 256 254
295 304 311 315 318 322 327 329 331 330 329 329 328 328 327 326 325 323 321 319 317 314 311 310 308 306 304 303 303 302 302 301 301 301 300 299 298 296 297 298 299 298 297 297 296 296 296 297 298 298 298 297 296 293 291 288 286 284 283 283 284 285 286 288 289 290 291 293 294 295 295 293 292 290 287 287 285 280 276 271 267 265 263 259 256
301 310 313 319 324 327 328 328 328 328 327 327 326 326 326 325 324 324 322 320 317 314 311 309 307 305 303 303 301 300 300 301 300 300 299 299 297 295 295 296 296 296 296 296 296 295 295 296 296 297 298 297 296 294 291 288 285 283 281 281 282 283 284 286 287 288 290 292 293 295 296 294 292 290 288 289 286 281 279 276 271 268 265 262 258
307 311 314 321 326 327 327 326 325 324 323 324 325 325 325 325 325 325 324 322 318 314 311 309 306 305 303 301 300 298 298 298 298 298 298 297 295 294 293 293 293 293 293 294 295 295 295 295 295 296 297 296 296 294 292 289 285 282 280 279 279 280 282 283 285 287 288 290 292 294 296 295 293 290 289 290 287 284 282 280 276 272 269 265 260
306 309 312 315 320 324 326 325 325 323 322 323 325 325 325 325 325 326 325 323 320 316 313 310 307 304 302 300 299 297 296 296 296 297 296 294 292 291 291 290 290 290 290 291 293 294 294 294 295 296 296 296 295 294 291 289 286 282 278 277 277 278 279 281 283 285 286 288 290 293 294 295 294 292 290 288 285 286 285 282 279 275 272 269 263
306 311 312 313 318 322 324 324 323 322 323 325 326 325 325 325 325 326 325 324 321 318 314 312 309 306 302 300 299 297 296 295 295 294 293 292 291 290 288 288 287 286 287 288 290 292 293 293 294 295 295 295 294 292 290 288 285 281 278 276 275 276 276 278 280 282 284 285 287 290 292 294 294 293 291 288 284 283 283 282 281 279 276 273 268
310 314 314 314 319 322 322 322 321 322 323 325 325 324 324 325 325 325 324 322 320 317 314 311 308 305 303 301 299 298 296 295 294 292 291 290 290 289 288 286 286 285 284 285 287 289 291 292 293 294 294 294 293 291 289 287 284 281 277 274 273 273 274 275 276 278 280 283 284 286 288 291 293 293 292 290 287 281 279 279 280 280 279 277 272
309 314 313 314 317 320 320 321 321 322 323 323 322 322 322 323 324 324 323 321 319 317 314 310 306 303 302 301 300 299 297 296 294 292 291 290 289 289 288 286 285 284 283 283 284 286 289 291 291 292 292 292 291 290 288 285 282 280 276 273 271 271 272 272 273 275 277 279 281 282 284 286 289 291 291 291 289 284 280 277 275 275 277 278 276
306 312 313 311 313 316 317 319 320 321 322 322 322 321 321 322 323 323 322 321 319 317 315 311 307 303 301 299 299 298 298 297 295 293 292 291 290 289 288 286 285 285 284 283 283 284 286 288 289 290 290 290 289 288 286 283 280 278 275 272 269 269 270 270 271 272 273 275 277 279 280 282 284 287 288 289 289 288 285 281 277 274 272 274 276
304 310 310 309 311 314 316 317 319 320 321 321 321 321 322 322 322 322 322 321 320 318 316 313 309 306 303 302 300 300 299 298 297 296 294 293 291 289 287 286 285 284 285 284 282 282 283 285 287 288 289 289 289 287 285 281 278 276 274 271 268 267 268 268 269 269 271 272 274 276 277 278 280 282 284 286 287 288 287 285 282 278 274 272 274
304 308 307 306 310 313 315 316 318 319 320 320 320 321 322 322 322 321 321 321 319 318 316 314 311 309 306 304 303 303 302 301 299 298 297 295 293 291 289 286 285 284 284 283 282 280 280 281 283 286 288 288 288 287 285 281 277 274 272 270 267 266 265 266 267 267 268 270 271 272 274 275 276 278 280 282 284 286 287 286 285 282 278 276 276
304 306 305 306 309 311 313 315 317 318 319 320 320 321 321 322 321 321 321 320 319 318 316 315 313 311 308 306 304 303 303 303 303 302 301 299 297 294 291 289 287 285 282 281 280 278 277 278 279 282 286 287 288 287 285 281 277 274 271 269 266 265 264 264 265 265 266 268 269 269 270 272 273 275 277 280 283 285 286 287 287 285 280 278 278
307 308 308 311 313 315 316 318 319 320 321 321 322 322 322 322 322 321 320 320 319 319 318 316 315 312 310 307 305 304 302 302 302 303 303 303 301 298 295 292 289 286 283 281 279 277 275 276 277 278 282 286 287 287 285 282 278 275 272 269 266 263 262 262 263 264 264 265 267 268 268 269 270 272 273 276 280 283 285 287 288 287 285 280 278
313 313 315 317 319 320 320 320 321 322 322 323 323 323 322 322 321 320 320 320 320 319 318 317 315 313 311 309 307 305 303 302 301 302 303 303 303 301 297 295 292 288 285 282 279 275 273 274 275 275 279 283 286 286 285 282 278 275 272 269 266 263 261 261 261 263 263 263 265 266 267 267 267 269 271 273 277 280 283 286 286 287 287 284 279
316 317 319 320 321 321 320 320 322 323 324 323 322 322 321 320 320 319 318 318 317 317 316 315 313 311 310 308 307 305 303 302 301 301 302 302 302 301 299 298 295 290 286 283 280 275 272 272 272 273 275 280 283 285 284 283 279 275 272 269 267 264 261 259 259 260 262 262 263 264 265 266 266 267 269 272 274 278 281 284 286 287 287 286 282
318 320 321 321 321 322 321 320 323 325 324 322 321 319 318 318 317 317 318 318 318 318 316 314 312 310 309 307 306 305 304 302 301 300 300 300 300 300 300 300 296 291 287 284 280 276 272 269 269 270 272 276 281 283 283 282 279 275 272 269 267 265 262 260 258 258 259 261 261 263 264 265 266 266 268 270 272 275 279 282 285 287 288 287 284
320 322 324 324 324 325 323 321 323 324 322 320 320 319 320 322 322 322 323 323 322 320 317 313 311 309 308 307 306 305 304 303 301 299 298 297 297 298 298 299 298 293 287 283 280 277 271 268 266 267 269 273 278 282 282 281 279 275 272 269 266 265 263 260 258 258 258 259 260 261 263 265 266 266 267 269 271 273 276 280 283 286 288 289 288
321 324 326 326 326 325 321 320 321 323 322 322 324 326 326 327 328 327 326 326 326 324 321 318 315 315 314 313 311 309 308 306 304 301 298 296 295 295 296 296 297 294 289 284 280 277 272 266 264 265 267 271 277 281 281 280 278 275 271 269 266 265 263 261 259 258 257 258 258 260 262 264 265 266 267 268 270 272 274 277 280 283 286 289 290
322 326 327 326 324 322 319 318 319 321 323 325 327 328 326 325 327 329 328 327 326 325 324 323 322 322 321 319 317 314 312 309 307 305 301 298 295 293 293 293 294 294 290 284 279 276 272 266 263 263 265 268 275 279 280 278 276 273 270 269 267 265 263 261 259 258 257 257 257 258 260 262 264 266 267 268 270 271 273 275 277 280 284 287 289
327 328 326 323 321 319 319 321 322 323 325 326 325 326 327 326 326 327 327 326 324 323 325 326 325 324 323 321 318 316 314 312 310 309 306 302 299 296 293 291 292 292 290 286 279 274 272 267 261 261 263 266 273 279 278 277 274 272 269 267 267 265 263 260 259 258 257 257 257 258 259 261 263 264 266 268 269 271 272 273 275 277 281 284 286
328 327 323 321 319 318 322 325 325 326 327 328 327 327 327 326 324 323 324 325 324 323 325 324 324 324 323 322 320 318 316 315 313 311 307 303 300 299 297 294 292 290 289 288 281 272 270 267 260 259 261 265 272 278 277 275 273 270 268 266 265 264 263 260 258 256 256 256 256 257 258 260 261 263 265 266 268 270 271 272 273 274 278 282 285
326 324 320 319 319 322 325 328 328 328 328 328 328 327 325 324 324 322 322 323 320 318 319 320 321 322 322 322 321 319 316 315 314 312 307 302 299 299 299 297 294 291 288 288 284 273 267 265 259 257 260 264 271 276 276 274 272 269 266 265 264 263 262 260 258 256 255 255 254 255 257 259 260 262 263 265 267 268 269 270 271 272 274 279 282
324 320 319 319 322 325 328 329 329 328 327 326 326 325 323 322 322 321 320 319 316 315 317 318 319 320 321 322 321 320 318 317 317 314 309 305 302 301 301 299 297 294 288 287 286 276 265 260 257 256 258 263 271 276 275 273 271 268 265 263 262 261 260 259 257 255 254 254 253 253 255 258 259 261 262 263 265 267 268 268 269 270 272 275 278
320 318 319 321 323 326 327 328 328 327 327 326 325 323 321 320 320 318 317 317 317 316 315 316 316 318 320 322 321 320 320 320 319 315 311 307 305 305 305 304 302 298 291 288 288 279 265 256 254 255 257 263 270 274 274 273 271 267 264 262 261 260 259 258 257 255 253 253 252 252 253 255 258 259 260 262 263 265 266 267 268 269 270 272 275
320 320 321 322 325 328 328 328 328 327 327 326 325 323 322 321 320 319 317 316 316 315 314 315 317 320 322 322 321 320 319 320 320 316 310 308 308 308 310 310 307 303 295 289 289 282 267 254 251 253 257 263 270 273 273 273 271 267 263 261 260 260 259 258 256 255 253 252 251 251 251 253 256 258 259 260 262 263 264 265 266 267 268 270 274
322 322 322 325 328 329 328 327 327 327 327 326 326 325 324 323 322 320 318 317 317 317 316 318 320 321 322 321 320 319 315 315 317 315 310 308 309 310 311 311 310 308 300 291 289 284 268 253 248 251 256 264 270 272 272 273 271 266 262 261 260 260 259 258 256 254 252 251 250 249 249 251 254 256 258 259 260 261 262 262 263 264 266 269 272
322 323 325 327 328 327 326 326 326 327 327 326 326 325 324 323 323 323 321 319 320 321 321 322 321 321 320 319 319 317 313 312 314 313 310 309 308 308 309 310 311 310 304 295 290 283 267 251 245 248 255 264 270 272 273 273 270 264 260 260 260 259 258 257 255 252 250 249 248 247 247 249 252 254 256 257 258 260 260 259 259 261 264 267 270
321 324 327 327 327 326 326 326 326 327 327 327 326 325 325 324 324 324 323 322 322 323 323 323 321 319 318 317 316 314 311 311 310 310 310 310 308 308 308 310 311 311 307 300 292 281 265 250 244 246 256 265 269 271 272 272 268 262 259 259 259 258 257 255 253 250 248 247 246 245 245 247 250 252 254 255 257 258 257 256 256 259 262 265 268
323 326 327 326 326 326 326 327 327 328 328 327 327 326 325 324 324 323 324 324 324 324 323 322 320 318 317 316 315 313 311 310 309 308 309 308 308 308 308 310 311 310 308 303 293 279 262 250 245 248 256 264 268 270 271 270 266 260 258 258 258 256 255 254 252 249 246 245 244 243 243 245 247 250 251 253 255 256 254 254 254 256 259 263 265
324 325 325 326 326 326 326 327 327 327 327 326 325 326 325 325 325 325 326 326 325 325 323 321 319 318 317 315 314 313 312 311 310 309 307 306 307 308 308 309 309 308 308 304 292 276 259 248 247 252 258 263 266 269 270 268 264 259 256 257 257 256 254 253 252 248 245 244 242 241 241 242 245 247 249 251 253 251 251 252 253 254 256 260 263
324 324 324 325 325 326 326 326 327 326 326 325 326 326 326 325 326 326 326 327 326 325 324 322 321 320 318 317 316 315 314 313 312 309 306 305 305 305 306 306 306 306 307 304 291 272 255 248 251 257 260 263 265 268 268 265 261 258 256 256 256 256 254 252 250 247 243 242 241 240 239 240 242 244 247 249 249 247 248 250 251 252 254 257 260
323 323 325 325 325 325 326 326 325 325 326 327 326 325 325 325 326 327 328 327 327 325 324 324 323 322 321 320 318 317 315 313 312 310 307 304 304 304 304 304 304 304 304 301 287 266 252 251 255 259 261 263 265 267 265 262 259 258 257 256 255 255 254 252 248 244 241 239 238 237 237 238 240 242 244 246 244 243 245 248 249 251 253 256 257
321 322 324 324 324 324 324 324 325 326 326 326 325 325 326 327 327 328 328 327 327 326 326 326 326 325 324 322 320 318 316 314 313 311 307 304 302 302 302 301 301 300 300 296 280 260 253 255 259 260 261 263 264 264 263 260 258 257 258 258 255 253 252 251 247 242 238 237 236 235 235 236 238 240 242 243 240 239 241 243 247 251 253 254 254
320 322 323 323 323 323 323 324 325 326 326 326 326 327 327 327 327 328 327 327 327 327 327 327 327 326 324 323 321 319 317 316 313 311 308 304 301 300 299 299 297 296 295 289 270 256 254 258 261 262 263 263 262 261 260 258 256 255 257 258 257 253 250 249 245 240 236 235 235 234 233 235 236 237 240 240 236 236 237 239 244 248 248 251 252
320 321 322 322 322 322 323 325 325 325 326 327 327 327 326 326 327 327 327 327 327 327 327 327 326 326 325 323 322 320 319 317 314 310 308 306 301 299 298 296 294 293 291 282 263 255 255 258 262 264 263 262 261 259 257 256 255 255 256 257 257 254 249 246 244 240 236 234 234 233 232 233 234 235 238 238 234 233 235 236 240 241 239 243 249
319 320 321 321 323 323 324 324 325 325 326 326 326 326 327 328 328 328 328 327 327 327 327 326 326 326 326 323 322 321 319 318 314 310 309 307 302 298 297 295 292 290 287 277 261 254 256 258 262 264 262 261 259 257 255 254 254 255 256 256 256 254 250 245 242 240 236 234 233 232 231 232 232 233 236 235 233 233 233 234 236 234 232 235 242
318 319 320 322 323 323 324 324 325 326 326 326 327 328 328 328 329 329 328 328 328 328 327 326 326 326 326 324 323 322 320 318 315 311 309 307 302 299 296 293 290 287 283 274 260 253 255 258 262 263 261 259 257 254 254 254 253 254 255 256 255 253 250 244 239 238 236 234 232 230 230 231 230 231 233 233 233 233 233 233 233 231 230 233 237
317 319 321 322 322 323 323 324 325 326 327 327 328 329 329 329 330 329 329 328 328 328 327 327 326 326 326 324 323 322 321 318 316 312 309 306 302 298 295 291 289 286 281 272 260 253 255 259 262 261 258 255 254 253 253 253 253 253 255 255 253 251 249 244 238 235 235 234 231 229 229 230 230 230 231 231 232 234 234 233 231 231 232 234 237
318 320 321 321 322 322 322 323 324 326 327 328 329 329 330 329 329 329 329 329 329 329 328 328 327 326 326 325 324 323 322 319 317 314 310 305 302 298 294 291 289 285 279 270 260 254 255 259 260 259 256 253 251 250 251 252 252 252 253 253 251 248 246 242 237 233 233 232 231 229 229 230 230 230 231 231 231 234 236 235 233 233 234 236 239
319 320 320 320 321 322 322 324 325 327 328 329 329 330 329 328 329 329 329 329 329 330 329 328 328 327 326 325 325 324 322 320 317 314 309 305 302 299 295 292 290 284 276 267 258 255 255 258 259 257 254 251 248 247 249 251 250 251 252 251 249 246 243 239 235 231 231 231 230 230 230 231 231 231 232 232 232 234 237 237 235 236 237 238 242
320 320 320 320 321 323 325 327 328 329 329 329 329 329 328 328 329 329 329 329 329 329 330 330 329 328 327 326 325 324 323 320 317 313 309 305 302 299 296 294 291 283 273 263 256 255 256 257 257 255 251 248 246 246 248 249 250 250 250 249 246 243 240 236 233 229 228 229 229 230 231 231 232 232 233 233 232 233 237 238 236 237 239 240 242
319 320 321 322 324 326 328 329 330 331 330 330 330 329 330 330 330 329 328 328 329 330 331 331 330 329 327 326 325 324 323 320 316 312 308 305 302 299 297 294 289 280 269 259 255 255 256 256 255 252 248 244 244 245 247 248 249 249 248 246 244 240 237 234 231 228 227 228 228 229 231 232 233 234 235 234 231 230 234 238 239 239 240 240 241
320 322 323 325 327 329 330 331 332 331 331 331 330 330 331 330 329 328 328 329 330 331 332 332 331 330 329 327 326 325 323 320 316 311 307 304 301 298 296 292 286 276 265 258 255 255 256 254 252 248 245 243 244 245 246 247 247 246 245 244 240 235 232 231 230 228 228 228 229 230 231 233 234 234 234 234 231 229 231 235 238 240 241 241 240
324 325 327 328 330 331 332 333 333 332 332 332 331 331 331 330 330 330 330 330 330 331 332 333 332 331 330 328 326 325 323 320 316 310 306 302 299 297 295 290 281 270 261 257 255 255 254 252 248 245 242 242 243 244 245 245 245 244 242 240 237 232 229 228 228 228 228 228 229 230 229 229 231 232 232 232 231 231 231 232 236 239 241 243 243
327 328 329 330 331 332 333 333 333 333 333 333 332 332 331 331 331 331 330 330 330 331 333 333 332 331 330 328 326 325 323 320 316 310 304 301 298 296 293 288 277 267 261 257 255 254 252 249 245 241 241 242 243 243 244 244 243 242 240 236 232 227 224 225 227 228 228 228 228 229 229 228 228 228 229 229 230 232 233 234 237 240 241 242 244
329 330 331 332 332 333 333 334 334 334 334 334 333 333 332 332 332 331 331 331 331 332 333 333 332 331 330 328 326 324 322 320 316 309 303 300 297 294 290 283 272 263 259 256 254 253 249 244 240 238 240 242 242 242 243 243 241 240 237 232 227 223 222 225 227 229 231 230 230 230 229 226 225 225 227 230 232 235 237 238 240 241 241 241 242
331 332 332 333 333 334 334 335 335 335 335 334 334 334 333 333 333 332 332 332 332 333 333 333 333 332 330 329 327 324 322 320 316 309 303 299 295 291 285 276 266 258 253 251 250 249 246 241 237 238 239 240 240 242 242 242 240 238 234 231 228 228 229 231 233 235 236 234 231 230 228 226 226 227 229 232 235 236 238 239 240 242 242 243 242
332 333 334 334 334 335 335 336 336 336 335 335 334 335 335 334 334 333 333 333 333 333 334 334 334 332 331 330 328 325 323 320 316 310 303 298 294 287 279 269 261 254 250 249 249 247 243 237 235 237 238 237 238 240 241 242 240 238 235 232 230 231 232 234 236 238 239 235 231 230 229 228 229 230 231 233 235 236 237 239 241 242 243 243 243
334 335 335 335 335 336 336 337 337 336 336 335 335 336 336 335 335 334 334 333 333 334 335 336 335 334 333 332 330 327 324 320 316 310 303 297 292 283 274 265 258 254 252 251 249 243 235 232 235 236 235 235 235 235 236 238 238 236 235 234 233 233 234 235 237 240 240 238 236 234 233 232 232 233 234 236 237 239 240 241 242 243 244 244 244
336 336 336 336 337 337 337 337 337 337 336 336 336 336 337 336 336 336 335 335 334 335 337 337 337 337 335 333 331 328 325 321 318 311 303 295 288 279 270 260 253 251 250 249 244 236 230 230 233 233 234 234 232 230 230 233 233 234 234 233 234 237 238 239 241 243 243 242 240 239 238 236 236 237 238 239 240 241 242 243 244 245 246 246 245
336 336 336 337 337 337 337 338 338 337 337 337 337 337 337 337 337 336 336 336 337 338 339 339 339 339 337 334 332 329 327 324 320 313 304 294 283 273 264 254 248 247 246 245 239 231 228 229 231 232 233 232 228 227 227 228 228 230 232 234 236 239 241 242 243 244 246 245 243 241 240 239 239 240 241 242 243 243 243 243 244 245 246 247 247
Height
3090 3089 3087 3086 3085 3083 3082 3080 3078 3076 3074 3072 3070 3068 3066 3063 3060 3058 3054 3051 3048 3045 3042 3039 3037 3034 3031 3028 3026 3023 3021 3018 3017 3015 3013 3011 3008 3005 3003 3001 2999 2996 2994 2991 2989 2987 2985 2982 2979 2977 2976 2974 2972 2970 2969 2968 2966 2965 2964 2963 2962 2961 2960 2959 2957 2955 2954 2954 2953 2952 2951 2949 2948 2947 2945 2943 2940 2939 2939 2939 2940 2941 2941 2942 2944
3088 3086 3085 3084 3082 3080 3079 3077 3075 3073 3071 3069 3067 3065 3063 3060 3057 3054 3051 3047 3044 3041 3038 3034 3032 3029 3026 3024 3021 3018 3015 3013 3011 3009 3007 3005 3004 3000 2998 2996 2994 2991 2989 2986 2984 2982 2980 2977 2975 2972 2970 2969 2967 2965 2964 2963 2962 2961 2959 2958 2957 2956 2956 2955 2952 2951 2950 2949 2948 2947 2947 2945 2944 2943 2942 2941 2938 2936 2935 2935 2936 2936 2936 2937 2938
3085 3084 3083 3081 3080 3078 3076 3074 3073 3071 3069 3067 3064 3062 3059 3057 3053 3050 3047 3043 3040 3036 3033 3030 3027 3024 3021 3019 3016 3012 3010 3008 3005 3004 3002 2999 2998 2995 2993 2991 2988 2986 2984 2981 2979 2977 2974 2972 2970 2967 2965 2963 2962 2960 2958 2957 2957 2956 2955 2954 2953 2952 2951 2951 2949 2947 2946 2946 2944 2943 2942 2942 2941 2938 2937 2938 2936 2933 2931 2931 2931 2931 2931 2932 2933
3083 3081 3080 3079 3077 3076 3074 3071 3069 3068 3066 3063 3061 3058 3055 3052 3049 3046 3043 3040 3036 3032 3029 3026 3023 3019 3016 3014 3012 3008 3005 3003 3000 2999 2997 2994 2991 2989 2987 2985 2983 2981 2978 2976 2974 2972 2969 2967 2964 2962 2960 2958 2956 2954 2953 2952 2951 2951 2950 2949 2948 2947 2947 2946 2945 2943 2942 2942 2940 2939 2938 2937 2937 2935 2934 2934 2933 2931 2929 2928 2926 2926 2926 2927 2928
3080 3079 3077 3076 3074 3073 3070 3068 3065 3063 3061 3058 3056 3053 3050 3048 3045 3041 3038 3035 3031 3028 3024 3021 3018 3015 3011 3008 3006 3004 3001 2998 2996 2994 2991 2989 2986 2984 2981 2979 2977 2975 2973 2970 2968 2966 2964 2962 2959 2957 2955 2953 2951 2949 2948 2947 2946 2946 2945 2944 2944 2943 2942 2942 2941 2939 2938 2938 2937 2936 2934 2933 2932 2931 2930 2930 2930 2928 2927 2925 2923 2922 2921 2921 2923
3078 3076 3074 3073 3071 3069 3067 3065 3062 3059 3057 3054 3051 3048 3046 3043 3040 3037 3033 3030 3027 3023 3020 3016 3013 3010 3006 3003 3000 2998 2995 2993 2991 2989 2985 2983 2981 2979 2976 2974 2971 2970 2967 2965 2962 2960 2958 2956 2954 2952 2950 2947 2946 2944 2943 2941 2940 2940 2940 2939 2939 2938 2937 2937 2937 2935 2934 2934 2933 2932 2931 2929 2928 2927 2926 2925 2926 2926 2924 2922 2920 2918 2917 2917 2918
3075 3074 3072 3070 3068 3066 3064 3062 3059 3056 3053 3050 3047 3045 3042 3039 3036 3033 3029 3025 3022 3019 3015 3012 3008 3004 3001 2998 2995 2992 2989 2987 2985 2982 2979 2977 2975 2972 2971 2968 2966 2964 2962 2959 2957 2954 2952 2950 2948 2946 2945 2943 2940 2938 2937 2936 2935 2934 2934 2934 2933 2933 2932 2933 2933 2931 2930 2930 2929 2929 2928 2926 2925 2923 2922 2921 2921 2922 2922 2920 2919 2916 2914 2913 2914
3073 3071 3069 3067 3065 3063 3061 3059 3056 3053 3050 3047 3044 3041 3038 3035 3032 3028 3025 3021 3017 3014 3010 3007 3003 3000 2996 2992 2990 2987 2984 2981 2978 2975 2971 2969 2968 2966 2964 2962 2959 2957 2955 2953 2951 2948 2947 2944 2942 2940 2939 2938 2935 2933 2932 2931 2929 2929 2928 2928 2928 2927 2927 2928 2928 2927 2926 2926 2925 2925 2924 2923 2922 2920 2919 2917 2916 2917 2918 2918 2917 2915 2913 2911 2911
3070 3068 3066 3064 3062 3060 3058 3055 3052 3049 3046 3042 3039 3036 3032 3029 3026 3023 3020 3015 3011 3008 3005 3001 2998 2995 2991 2988 2984 2981 2978 2975 2972 2969 2966 2962 2960 2959 2957 2955 2952 2950 2948 2946 2944 2942 2940 2938 2936 2934 2933 2932 2930 2928 2927 2926 2924 2923 2922 2923 2922 2922 2922 2922 2923 2923 2922 2922 2921 2920 2920 2920 2919 2917 2916 2914 2913 2912 2913 2913 2913 2913 2912 2910 2909
3067 3065 3063 3061 3059 3056 3054 3051 3048 3045 3042 3038 3034 3031 3027 3023 3019 3016 3014 3010 3005 3002 2999 2995 2992 2989 2986 2982 2979 2976 2973 2969 2966 2963 2961 2957 2954 2952 2950 2948 2945 2943 2941 2939 2938 2936 2934 2932 2930 2928 2927 2925 2924 2923 2922 2920 2919 2917 2916 2916 2917 2917 2917 2917 2918 2918 2918 2918 2918 2917 2916 2916 2915 2914 2913 2911 2910 2909 2908 2908 2909 2909 2909 2908 2906
3065 3063 3060 3058 3055 3053 3050 3047 3044 3041 3037 3033 3030 3025 3021 3017 3013 3009 3007 3004 3000 2996 2993 2990 2987 2983 2980 2977 2973 2970 2967 2963 2960 2957 2954 2951 2948 2946 2943 2941 2939 2937 2935 2932 2931 2929 2927 2926 2924 2922 2920 2919 2918 2916 2915 2914 2913 2912 2911 2910 2911 2911 2911 2911 2912 2913 2914 2913 2914 2913 2912 2912 2911 2910 2909 2908 2907 2906 2905 2904 2904 2904 2904 2904 2902
3062 3060 3057 3054 3052 3049 3046 3043 3040 3036 3032 3028 3024 3020 3016 3012 3008 3004 3000 2997 2994 2990 2987 2984 2982 2978 2974 2971 2968 2965 2961 2957 2954 2951 2948 2944 2941 2938 2936 2934 2932 2930 2928 2925 2924 2922 2920 2919 2918 2916 2914 2913 2911 2910 2909 2908 2907 2906 2905 2905 2905 2905 2906 2906 2907 2908 2909 2909 2909 2909 2908 2908 2907 2906 2905 2904 2903 2903 2902 2901 2900 2899 2900 2900 2898
3059 3056 3053 3050 3047 3044 3041 3038 3034 3030 3027 3022 3018 3013 3009 3005 3002 2998 2994 2991 2987 2984 2981 2977 2975 2972 2969 2966 2962 2959 2955 2952 2948 2945 2942 2938 2935 2931 2928 2926 2925 2923 2920 2918 2917 2915 2913 2911 2911 2909 2908 2906 2905 2904 2903 2902 2900 2900 2899 2899 2899 2899 2900 2900 2901 2902 2904 2904 2904 2904 2904 2904 2903 2903 2902 2900 2899 2899 2898 2897 2896 2895 2895 2896 2894
3055 3052 3049 3046 3042 3039 3035 3032 3028 3024 3020 3015 3011 3007 3003 2999 2995 2991 2988 2985 2982 2978 2975 2971 2968 2965 2962 2960 2957 2953 2950 2946 2942 2939 2936 2932 2929 2924 2920 2918 2917 2915 2912 2911 2909 2908 2905 2904 2903 2902 2901 2900 2899 2897 2896 2895 2894 2893 2893 2893 2893 2893 2894 2894 2895 2896 2897 2899 2899 2899 2899 2900 2899 2899 2898 2897 2896 2895 2894 2894 2893 2892 2891 2891 2891
3051 3048 3045 3042 3038 3034 3030 3026 3022 3018 3013 3009 3004 3001 2997 2993 2990 2986 2982 2979 2976 2972 2969 2966 2963 2959 2956 2953 2950 2947 2943 2940 2936 2933 2929 2925 2921 2918 2914 2912 2910 2907 2904 2903 2901 2899 2898 2896 2895 2895 2894 2893 2892 2891 2890 2889 2888 2887 2887 2887 2887 2887 2888 2888 2889 2890 2891 2893 2894 2894 2894 2895 2895 2895 2894 2893 2892 2891 2890 2890 2889 2888 2887 2887 2887
3048 3045 3042 3038 3034 3029 3024 3020 3016 3012 3007 3003 2999 2995 2992 2988 2984 2981 2978 2974 2970 2966 2963 2960 2957 2954 2950 2946 2943 2939 2936 2933 2930 2927 2923 2919 2914 2910 2907 2905 2903 2899 2896 2894 2893 2891 2890 2888 2887 2887 2887 2886 2885 2884 2883 2882 2882 2881 2881 2881 2880 2881 2882 2882 2883 2884 2886 2887 2888 2888 2889 2890 2891 2890 2890 2889 2889 2888 2887 2886 2885 2884 2883 2882 2882
3045 3042 3038 3034 3030 3025 3019 3014 3010 3006 3002 2998 2994 2989 2985 2981 2976 2972 2970 2968 2964 2960 2957 2954 2950 2947 2944 2941 2937 2933 2930 2926 2923 2920 2917 2913 2908 2904 2900 2897 2895 2892 2889 2887 2884 2883 2881 2880 2880 2879 2879 2879 2878 2878 2876 2876 2875 2874 2874 2874 2874 2875 2875 2876 2877 2878 2880 2881 2882 2883 2883 2885 2885 2885 2885 2885 2885 2885 2884 2882 2881 2880 2879 2878 2877
3042 3038 3034 3030 3025 3021 3016 3011 3006 3002 2997 2992 2988 2984 2979 2975 2971 2967 2962 2959 2957 2954 2951 2947 2944 2941 2938 2935 2931 2927 2923 2919 2915 2912 2909 2905 2902 2897 2893 2890 2887 2885 2882 2879 2877 2875 2873 2872 2872 2872 2872 2872 2872 2871 2870 2869 2868 2868 2868 2868 2868 2869 2869 2870 2871 2872 2874 2875 2876 2877 2878 2879 2880 2880 2881 2881 2881 2881 2881 2879 2878 2877 2876 2875 2873
3038 3033 3029 3025 3021 3016 3012 3008 3003 2998 2993 2988 2984 2980 2976 2971 2967 2964 2959 2954 2950 2948 2945 2943 2940 2937 2933 2930 2926 2922 2917 2913 2908 2904 2900 2897 2894 2889 2885 2882 2879 2876 2874 2871 2869 2867 2865 2864 2864 2864 2865 2865 2865 2865 2864 2863 2862 2861 2861 2861 2862 2863 2864 2864 2865 2866 2867 2869 2870 2872 2873 2874 2874 2875 2876 2876 2876 2877 2877 2876 2875 2873 2873 2873 2871
3032 3028 3024 3020 3016 3012 3008 3003 2998 2993 2989 2985 2980 2976 2972 2967 2962 2958 2955 2951 2946 2942 2939 2936 2933 2930 2926 2922 2918 2913 2909 2904 2899 2895 2890 2887 2884 2880 2876 2873 2871 2868 2865 2863 2860 2858 2857 2857 2856 2857 2858 2858 2859 2858 2857 2857 2856 2855 2855 2856 2856 2857 2858 2858 2859 2860 2861 2863 2864 2866 2867 2868 2869 2870 2871 2871 2872 2872 2873 2873 2872 2871 2870 2869 2869
3028 3024 3020 3015 3011 3007 3003 2998 2993 2989 2984 2980 2976 2971 2967 2963 2959 2954 2950 2945 2941 2936 2932 2929 2925 2921 2916 2912 2908 2904 2899 2894 2890 2886 2882 2878 2874 2871 2868 2864 2861 2859 2856 2854 2852 2850 2849 2849 2849 2849 2850 2851 2852 2852 2851 2851 2850 2849 2850 2850 2850 2851 2851 2852 2853 2854 2855 2857 2859 2860 2862 2863 2864 2864 2866 2866 2867 2867 2868 2869 2869 2868 2867 2866 2866
3024 3019 3014 3010 3006 3002 2997 2993 2989 2985 2980 2975 2971 2967 2963 2959 2955 2951 2946 2941 2937 2932 2928 2924 2920 2916 2912 2907 2902 2897 2893 2889 2884 2880 2875 2870 2866 2863 2859 2855 2852 2850 2848 2845 2843 2841 2840 2841 2842 2842 2843 2845 2845 2845 2845 2844 2844 2844 2844 2844 2845 2845 2846 2846 2847 2848 2850 2851 2853 2855 2856 2858 2858 2859 2861 2861 2862 2863 2863 2864 2865 2865 2865 2864 2863
3020 3014 3010 3006 3002 2997 2993 2988 2984 2980 2975 2971 2966 2962 2958 2954 2950 2945 2941 2938 2934 2929 2924 2920 2915 2912 2908 2903 2897 2892 2887 2882 2878 2873 2868 2864 2859 2855 2851 2848 2844 2842 2839 2837 2835 2833 2832 2832 2834 2835 2837 2838 2839 2839 2838 2838 2838 2838 2838 2839 2839 2839 2840 2841 2842 2843 2844 2845 2847 2849 2851 2852 2853 2854 2856 2856 2857 2858 2859 2860 2860 2861 2861 2861 2860
3014 3010 3006 3002 2998 2994 2988 2984 2979 2975 2970 2966 2962 2958 2953 2949 2945 2941 2936 2933 2930 2925 2920 2915 2911 2906 2901 2895 2890 2884 2879 2874 2870 2865 2861 2857 2853 2848 2844 2840 2837 2834 2831 2829 2827 2826 2825 2824 2826 2829 2830 2832 2832 2832 2832 2832 2832 2832 2832 2833 2834 2834 2835 2835 2836 2838 2839 2840 2841 2844 2846 2847 2848 2850 2851 2852 2852 2853 2854 2855 2856 2857 2857 2857 2857
3009 3005 3002 2998 2994 2989 2984 2979 2975 2970 2966 2961 2957 2953 2948 2944 2940 2936 2931 2927 2924 2920 2915 2910 2904 2898 2892 2887 2882 2877 2871 2866 2862 2858 2854 2850 2846 2842 2837 2834 2830 2827 2824 2822 2820 2819 2818 2817 2819 2822 2824 2825 2826 2826 2826 2826 2827 2827 2827 2827 2828 2829 2829 2830 2831 2832 2834 2835 2836 2838 2841 2842 2843 2845 2847 2847 2848 2849 2850 2851 2852 2852 2853 2853 2853
3005 3001 2997 2993 2989 2985 2980 2976 2971 2966 2962 2957 2952 2947 2943 2938 2934 2930 2926 2921 2917 2913 2907 2901 2895 2889 2884 2880 2876 2871 2866 2860 2856 2851 2847 2843 2840 2836 2832 2828 2825 2821 2817 2815 2813 2812 2812 2811 2812 2815 2818 2819 2820 2820 2820 2821 2821 2821 2821 2822 2823 2823 2824 2825 2826 2827 2828 2830 2831 2833 2835 2837 2838 2841 2842 2843 2844 2845 2846 2847 2848 2848 2849 2849 2849
3001 2997 2992 2988 2985 2980 2976 2971 2967 2962 2957 2952 2947 2942 2937 2932 2928 2924 2919 2914 2909 2904 2898 2893 2888 2883 2879 2874 2870 2866 2861 2855 2850 2845 2841 2837 2834 2830 2826 2822 2818 2815 2811 2808 2806 2806 2806 2806 2807 2809 2812 2813 2814 2814 2814 2815 2816 2816 2816 2817 2817 2818 2819 2820 2821 2822 2823 2825 2826 2828 2830 2832 2834 2836 2837 2838 2840 2841 2842 2843 2844 2844 2844 2845 2845
2997 2993 2989 2984 2980 2975 2970 2965 2960 2956 2952 2947 2942 2937 2932 2927 2922 2918 2913 2908 2902 2896 2891 2886 2882 2877 2873 2869 2865 2860 2855 2849 2844 2840 2836 2832 2828 2824 2820 2816 2812 2808 2805 2802 2800 2799 2800 2800 2802 2804 2806 2807 2808 2809 2809 2810 2810 2811 2811 2812 2812 2813 2814 2815 2816 2817 2818 2820 2821 2823 2825 2827 2830 2832 2833 2834 2835 2837 2838 2839 2840 2840 2841 2841 2842
2992 2988 2984 2979 2974 2969 2964 2959 2954 2950 2945 2941 2936 2931 2926 2922 2917 2912 2907 2902 2896 2890 2885 2880 2876 2872 2867 2863 2858 2853 2849 2843 2838 2834 2830 2826 2821 2817 2814 2810 2806 2802 2799 2796 2794 2794 2794 2796 2797 2799 2801 2802 2802 2803 2804 2805 2805 2806 2806 2806 2807 2808 2809 2810 2811 2812 2814 2815 2817 2819 2821 2823 2825 2827 2828 2830 2832 2833 2834 2835 2836 2836 2837 2838 2838
2988 2983 2979 2974 2969 2964 2959 2954 2949 2944 2940 2935 2930 2925 2921 2916 2911 2906 2901 2895 2890 2884 2880 2875 2871 2866 2861 2857 2852 2846 2842 2837 2832 2828 2823 2819 2815 2811 2807 2804 2800 2796 2794 2791 2790 2789 2790 2792 2793 2794 2795 2797 2797 2798 2799 2800 2800 2800 2801 2802 2802 2803 2804 2805 2806 2808 2809 2811 2813 2815 2817 2819 2821 2822 2824 2826 2828 2829 2831 2831 2831 2832 2833 2834 2835
2984 2979 2974 2969 2964 2959 2954 2949 2944 2940 2935 2930 2925 2920 2915 2910 2905 2900 2894 2889 2884 2879 2874 2869 2864 2859 2854 2850 2845 2840 2835 2830 2826 2821 2817 2812 2809 2805 2801 2798 2794 2791 2789 2786 2785 2785 2787 2789 2789 2790 2791 2791 2792 2794 2795 2795 2795 2795 2796 2797 2798 2799 2799 2801 2802 2803 2805 2807 2808 2811 2813 2815 2816 2818 2820 2822 2824 2826 2827 2827 2828 2829 2830 2830 2831
2979 2974 2969 2964 2958 2953 2949 2944 2940 2935 2930 2925 2920 2915 2910 2905 2900 2895 2889 2884 2880 2874 2869 2864 2859 2853 2848 2843 2838 2833 2828 2823 2819 2815 2810 2806 2802 2799 2795 2792 2789 2786 2784 2782 2781 2782 2784 2785 2785 2785 2786 2787 2788 2789 2790 2790 2790 2790 2791 2792 2793 2794 2795 2796 2798 2799 2800 2802 2804 2806 2808 2810 2812 2814 2816 2819 2820 2822 2823 2823 2824 2825 2826 2827 2828
2975 2970 2965 2959 2954 2949 2944 2940 2935 2930 2925 2920 2915 2909 2903 2898 2893 2888 2883 2879 2874 2869 2863 2858 2852 2847 2841 2836 2831 2826 2821 2816 2811 2807 2804 2800 2796 2793 2790 2786 2784 2781 2779 2778 2778 2779 2781 2781 2781 2781 2782 2783 2784 2785 2785 2785 2786 2786 2786 2787 2788 2790 2791 2792 2793 2794 2796 2798 2800 2802 2804 2806 2808 2810 2813 2815 2817 2818 2819 2820 2820 2821 2823 2824 2824
2972 2966 2961 2956 2950 2945 2941 2936 2930 2926 2921 2915 2909 2904 2898 2893 2888 2883 2878 2873 2867 2862 2857 2851 2846 2841 2835 2830 2824 2818 2813 2808 2803 2799 2796 2793 2789 2786 2784 2781 2779 2777 2775 2774 2774 2775 2777 2777 2777 2777 2778 2779 2780 2780 2780 2780 2781 2782 2782 2782 2784 2786 2787 2788 2789 2790 2792 2794 2796 2799 2801 2803 2804 2807 2809 2812 2814 2815 2816 2817 2817 2819 2820 2820 2821
2967 2962 2957 2952 2946 2941 2935 2931 2925 2920 2915 2910 2905 2899 2894 2889 2883 2878 2873 2867 2862 2856 2851 2845 2840 2835 2830 2823 2817 2811 2805 2800 2795 2791 2788 2785 2782 2779 2778 2776 2774 2772 2770 2769 2769 2770 2772 2772 2773 2773 2774 2775 2776 2776 2776 2776 2776 2778 2778 2779 2780 2782 2783 2784 2785 2786 2788 2790 2793 2795 2797 2799 2801 2803 2806 2808 2810 2811 2813 2814 2815 2816 2817 2818 2818
2963 2957 2952 2947 2941 2935 2930 2925 2920 2916 2911 2906 2900 2894 2888 2883 2878 2872 2867 2861 2856 2850 2845 2840 2834 2829 2823 2817 2811 2805 2798 2792 2788 2784 2780 2778 2775 2773 2772 2770 2769 2767 2766 2764 2765 2766 2767 2767 2768 2769 2770 2770 2771 2771 2771 2771 2772 2773 2774 2775 2776 2778 2779 2781 2782 2783 2785 2787 2789 2791 2793 2795 2798 2800 2803 2805 2807 2808 2809 2810 2812 2813 2814 2815 2816
2959 2954 2948 2942 2936 2930 2925 2920 2915 2910 2905 2899 2894 2888 2882 2876 2871 2866 2861 2855 2850 2844 2839 2833 2828 2822 2817 2810 2804 2798 2791 2786 2781 2777 2774 2772 2769 2767 2766 2765 2764 2762 2761 2760 2760 2761 2762 2763 2764 2765 2765 2766 2766 2767 2767 2767 2768 2769 2770 2771 2773 2774 2775 2777 2778 2779 2781 2783 2786 2788 2790 2792 2795 2797 2800 2802 2803 2805 2806 2807 2809 2810 2812 2813 2814
2954 2948 2943 2937 2932 2927 2921 2916 2911 2905 2899 2893 2887 2881 2876 2870 2865 2860 2855 2849 2844 2839 2833 2827 2821 2816 2810 2804 2798 2792 2785 2780 2775 2771 2768 2766 2764 2762 2761 2760 2759 2758 2756 2756 2756 2756 2757 2759 2760 2760 2761 2761 2762 2763 2763 2763 2764 2765 2766 2768 2769 2770 2771 2773 2775 2776 2778 2780 2782 2785 2787 2789 2791 2795 2797 2799 2800 2801 2803 2804 2806 2807 2809 2810 2811
2950 2944 2938 2932 2928 2923 2918 2913 2907 2901 2895 2888 2882 2876 2871 2865 2861 2855 2849 2843 2838 2833 2827 2821 2815 2809 2804 2798 2792 2785 2779 2774 2770 2766 2763 2761 2759 2757 2756 2755 2754 2753 2752 2751 2752 2752 2754 2754 2755 2756 2756 2757 2758 2759 2759 2759 2761 2762 2763 2764 2766 2767 2768 2769 2771 2773 2775 2777 2779 2781 2783 2785 2789 2792 2794 2796 2797 2798 2799 2801 2803 2804 2806 2808 2809
2945 2941 2935 2929 2924 2919 2914 2908 2902 2897 2890 2884 2878 2872 2867 2861 2856 2850 2844 2838 2832 2827 2822 2817 2811 2804 2798 2792 2786 2780 2774 2769 2764 2761 2758 2756 2754 2753 2751 2750 2750 2748 2747 2747 2747 2748 2750 2750 2751 2752 2753 2753 2754 2755 2755 2756 2757 2758 2760 2761 2762 2763 2764 2766 2767 2769 2771 2774 2776 2778 2780 2782 2785 2788 2791 2793 2794 2795 2796 2798 2800 2801 2803 2805 2806
2939 2935 2930 2925 2920 2914 2908 2902 2896 2891 2885 2879 2874 2868 2862 2856 2850 2844 2838 2833 2827 2822 2817 2811 2805 2799 2792 2786 2780 2774 2769 2764 2760 2756 2753 2751 2750 2748 2747 2746 2745 2744 2743 2743 2743 2744 2746 2746 2747 2748 2749 2750 2750 2751 2752 2752 2754 2755 2756 2757 2759 2760 2761 2762 2764 2766 2768 2770 2773 2774 2777 2779 2782 2785 2787 2790 2791 2792 2793 2794 2796 2798 2800 2802 2803
2936 2930 2925 2920 2915 2909 2902 2896 2890 2884 2879 2873 2868 2862 2856 2851 2845 2839 2833 2828 2822 2817 2811 2806 2799 2793 2787 2781 2775 2769 2764 2759 2756 2752 2749 2747 2746 2744 2742 2741 2740 2740 2740 2739 2740 2741 2742 2743 2744 2744 2745 2746 2746 2747 2748 2749 2750 2752 2753 2754 2755 2757 2758 2759 2761 2763 2765 2767 2769 2771 2774 2776 2779 2782 2784 2786 2788 2789 2790 2790 2792 2795 2797 2798 2800
2931 2926 2920 2914 2908 2903 2897 2891 2885 2879 2874 2868 2862 2857 2851 2845 2840 2834 2828 2822 2816 2811 2805 2800 2794 2787 2781 2775 2770 2765 2760 2755 2751 2748 2745 2743 2742 2740 2738 2737 2736 2736 2736 2736 2736 2737 2738 2739 2740 2741 2742 2743 2743 2744 2745 2746 2747 2749 2750 2751 2752 2754 2755 2756 2758 2760 2762 2764 2766 2768 2771 2774 2776 2778 2780 2782 2784 2786 2786 2787 2788 2790 2792 2795 2796
2926 2920 2914 2909 2903 2897 2892 2886 2880 2874 2868 2863 2857 2851 2846 2840 2834 2828 2822 2816 2811 2805 2800 2794 2788 2782 2776 2770 2765 2760 2755 2751 2747 2744 2741 2739 2738 2736 2734 2733 2733 2732 2732 2733 2734 2734 2735 2736 2737 2738 2739 2739 2740 2741 2742 2743 2744 2746 2747 2748 2749 2751 2752 2753 2755 2757 2759 2761 2763 2765 2768 2770 2773 2775 2777 2778 2780 2781 2782 2783 2785 2786 2789 2791 2792
2921 2915 2910 2904 2898 2893 2888 2883 2876 2870 2864 2858 2852 2846 2841 2835 2829 2822 2816 2811 2805 2800 2794 2788 2782 2777 2771 2765 2760 2755 2750 2747 2743 2740 2737 2735 2734 2732 2731 2730 2729 2729 2729 2730 2731 2732 2733 2733 2734 2735 2736 2737 2738 2738 2739 2740 2741 2743 2744 2745 2746 2748 2749 2751 2752 2754 2756 2758 2760 2763 2765 2767 2769 2771 2772 2774 2775 2776 2778 2780 2781 2783 2786 2787 2789
2916 2910 2905 2899 2894 2889 2884 2878 2872 2866 2860 2854 2848 2841 2835 2830 2824 2818 2812 2806 2800 2794 2789 2783 2777 2771 2766 2760 2755 2750 2746 2743 2740 2736 2733 2731 2730 2729 2727 2726 2726 2726 2727 2728 2729 2730 2730 2731 2732 2732 2733 2734 2735 2736 2737 2738 2739 2740 2741 2742 2744 2745 2746 2747 2749 2751 2753 2755 2758 2760 2761 2763 2765 2767 2768 2770 2771 2773 2775 2776 2778 2780 2781 2783 2785
2911 2906 2901 2895 2890 2885 2879 2874 2868 2862 2855 2850 2844 2838 2831 2825 2819 2813 2808 2801 2795 2789 2784 2778 2772 2766 2761 2755 2750 2745 2741 2738 2735 2733 2730 2728 2727 2726 2724 2723 2723 2723 2724 2725 2727 2728 2728 2729 2729 2730 2731 2732 2733 2734 2735 2736 2736 2738 2739 2740 2741 2743 2744 2746 2747 2749 2751 2753 2755 2757 2758 2760 2762 2763 2765 2767 2768 2770 2771 2772 2774 2775 2777 2779 2780
2908 2902 2897 2891 2886 2880 2874 2869 2863 2858 2852 2846 2840 2834 2827 2821 2815 2809 2803 2797 2790 2784 2779 2773 2767 2762 2756 2751 2746 2741 2737 2734 2731 2729 2726 2724 2723 2722 2721 2721 2721 2721 2722 2723 2724 2726 2726 2727 2727 2728 2729 2730 2731 2732 2733 2733 2734 2735 2737 2738 2739 2741 2742 2744 2745 2747 2748 2750 2752 2754 2755 2757 2759 2760 2762 2763 2764 2766 2767 2769 2770 2772 2773 2775 2776
2904 2898 2893 2887 2882 2876 2870 2865 2859 2854 2848 2842 2836 2830 2824 2818 2812 2805 2798 2792 2785 2779 2774 2768 2763 2757 2751 2746 2741 2737 2733 2730 2727 2725 2723 2721 2720 2719 2719 2718 2719 2719 2721 2722 2723 2724 2724 2725 2726 2727 2727 2728 2729 2730 2731 2731 2732 2734 2735 2736 2738 2739 2740 2742 2743 2744 2746 2748 2750 2751 2752 2754 2755 2757 2758 2759 2760 2762 2764 2765 2767 2768 2769 2771 2772
2899 2894 2889 2884 2878 2872 2867 2861 2856 2850 2844 2839 2833 2827 2821 2814 2807 2801 2794 2787 2781 2775 2769 2763 2758 2753 2747 2742 2737 2733 2729 2726 2724 2722 2720 2718 2717 2716 2716 2717 2717 2718 2719 2721 2722 2722 2723 2723 2724 2725 2726 2726 2727 2728 2729 2730 2731 2732 2733 2734 2736 2737 2738 2740 2741 2742 2743 2745 2746 2748 2749 2751 2752 2753 2754 2756 2757 2759 2760 2761 2763 2764 2765 2767 2768
2895 2890 2885 2879 2874 2868 2863 2857 2852 2846 2841 2835 2829 2823 2817 2811 2804 2797 2790 2784 2777 2770 2764 2759 2753 2748 2743 2738 2733 2729 2726 2723 2721 2718 2717 2716 2715 2714 2714 2715 2716 2717 2718 2720 2720 2721 2721 2722 2723 2723 2724 2725 2726 2727 2728 2729 2730 2730 2731 2733 2734 2735 2736 2738 2738 2739 2740 2742 2743 2744 2746 2747 2748 2750 2751 2752 2753 2755 2756 2757 2759 2760 2761 2762 2764